Location: G�ksu
(36.9124°N, 30.7532°E)
Time: 23:36:44
(UTC+00:00)

Daily predictions for brighter satellites

Satellite Brightness Start Highest point End
(mag) Time Altitude Azimuth Time Altitude Azimuth Time Altitude Azimuth
Cosmos 1862 Rocket 3.7 17:30:11 10° S 17:34:32 58° E 17:38:53 10° NNE
SJ-6B 3.0 17:31:00 10° SSE 17:34:38 49° ENE 17:38:16 10° N
SPOT 3 Rocket 4.3 17:31:40 10° SE 17:36:17 35° ENE 17:40:56 10° N
Cosmos 1844 3.9 17:31:25 10° S 17:36:47 50° ESE 17:42:18 10° NNE
STARLINK-1154 4.3 17:33:20 10° SSW 17:37:00 32° SE 17:40:41 10° ENE
Cosmos 1733 Rocket 3.2 17:32:54 10° N 17:37:12 53° E 17:41:26 10° SSE
STARLINK-1132 3.7 17:33:31 10° NW 17:37:40 69° NE 17:41:46 10° SE
NOSS 3-1 (C) 3.2 17:32:50 10° SSW 17:38:00 61° ESE 17:43:51 10° NE
STARLINK-1234 3.3 17:35:42 10° SW 17:38:47 65° NW 17:41:52 10° NE
FREGAT/IRIS 2.2 17:36:10 10° SSE 17:38:50 80° ENE 17:41:30 10° N
NOSS 3-1 (A) 3.7 17:34:27 10° S 17:39:10 34° ESE 17:44:24 10° NE
Meteor 1-27 Rocket 3.9 17:33:19 10° S 17:39:14 88° W 17:45:08 10° N
STARLINK-1212 2.8 17:37:01 10° SW 17:40:07 85° SE 17:43:13 10° NE
STARLINK-1209 3.6 17:37:09 10° WSW 17:40:13 58° NW 17:43:20 10° NE
STARLINK-1105 2.8 17:37:30 10° SW 17:40:36 86° SE 17:43:42 10° NE
Meteor 2-11 Rocket 4.5 17:34:56 10° N 17:41:04 74° E 17:47:07 10° SSE
STARLINK-1247 2.8 17:38:23 10° SW 17:41:30 89° SE 17:44:37 10° NE
MOS 1 Rocket 3.2 17:37:20 10° NNE 17:41:44 56° E 17:45:56 10° S
STARLINK-1197 4.2 17:38:10 10° SSW 17:41:57 35° SE 17:45:44 10° ENE
STARLINK-1227 2.8 17:38:51 10° SW 17:41:57 89° S 17:45:03 10° NE
Okean 1-7 4.5 17:39:11 10° SE 17:42:15 19° E 17:45:18 10° NE
STARLINK-1177 3.7 17:38:30 10° NW 17:42:38 77° NE 17:46:47 10° SE
STARLINK-1226 2.8 17:39:43 10° SW 17:42:48 88° NW 17:45:55 10° NE
STARLINK-1215 2.9 17:40:39 10° SW 17:43:45 86° NW 17:46:52 10° NE
Cosmos 44 4.4 17:40:11 10° NW 17:44:41 43° WSW 17:49:23 10° S
STARLINK-1217 2.9 17:42:26 10° SW 17:45:31 82° NW 17:48:38 10° NE
STARLINK-1229 3.0 17:43:20 10° SW 17:46:26 80° NW 17:49:33 10° NE
STARLINK-1198 4.0 17:43:01 10° SSW 17:46:52 39° SE 17:50:45 10° ENE
STARLINK-1270 3.0 17:44:12 10° SW 17:47:18 78° NW 17:50:25 10° NE
STARLINK-1167 3.6 17:43:28 10° NW 17:47:38 85° NE 17:51:35 11° SE
Resurs 01 Rocket 2.9 17:44:21 10° SE 17:47:59 25° ENE 17:51:37 10° NNE
H-2A R/B 2.5 17:43:35 10° S 17:48:27 61° W 17:53:30 10° NNW
STARLINK-1189 3.1 17:46:03 10° SW 17:49:09 74° NW 17:52:15 10° NE
CZ-2C R/B 3.7 17:43:59 10° S 17:49:10 62° W 17:54:41 10° NNW
STARLINK-1188 3.1 17:46:55 10° SW 17:50:01 73° NW 17:53:07 10° NE
NOSS 2-3 (C) 4.3 17:46:46 10° S 17:50:25 30° ESE 17:54:22 10° NE
STARLINK-1235 3.8 17:47:43 10° WSW 17:50:43 50° NW 17:53:44 10° NE
STARLINK-1187 3.5 17:48:06 10° WSW 17:51:08 59° NW 17:54:10 10° NE
MOS 1 4.4 17:45:31 10° SSE 17:51:13 90° WNW 17:56:57 10° NNW
STARLINK-1199 3.9 17:47:56 10° SSW 17:51:52 44° SE 17:55:48 10° ENE
Hubble Space Telescope 2.2 17:48:54 10° SW 17:52:07 22° S 17:54:51 12° SE
Cosmos 1464 Rocket 4.1 17:45:53 10° N 17:52:12 63° E 17:58:29 10° SSE
STARLINK-1191 3.2 17:49:25 10° SW 17:52:29 67° NW 17:55:35 10° NE
STARLINK-1168 3.6 17:48:26 10° NW 17:52:35 87° SW 17:56:21 12° SE
MONITOR-E 3.8 17:50:40 10° S 17:53:13 75° W 17:55:47 10° NNW
STARLINK-1221 3.3 17:50:19 10° SW 17:53:22 66° NW 17:56:27 10° NE
STARLINK-1222 3.3 17:51:11 10° SW 17:54:15 64° NW 17:57:20 10° NE
STARLINK-1214 3.4 17:52:07 10° WSW 17:55:10 62° NW 17:58:15 10° NE
STARLINK-1210 3.8 17:52:49 10° SSW 17:56:48 49° SE 18:00:48 10° ENE
STARLINK-1164 3.7 17:53:26 10° NW 17:57:34 79° SW 18:01:09 13° SE
USA 186 2.7 17:55:44 10° SSW 17:57:53 33° W 18:00:09 10° NNW
Abrixas rocket 4.2 17:56:27 10° W 17:59:02 27° NNW 18:01:37 10° NE
Meteor 1-4 Rocket 4.4 17:58:46 12° ESE 17:59:33 13° E 18:01:11 10° ENE
STARLINK-1157 4.3 17:57:06 10° NNW 18:00:08 31° NE 18:02:42 13° E
STARLINK-1219 3.7 17:57:44 10° SSW 18:01:46 55° SE 18:05:49 10° NE
STARLINK-1182 3.7 17:58:25 10° NW 18:02:33 71° SW 18:05:56 15° SE
STARLINK-1211 3.6 18:02:38 10° SW 18:06:43 62° SE 18:10:48 10° NE
Cosmos 1371 Rocket 4.5 18:01:55 10° S 18:06:47 39° ESE 18:11:37 10° NE
STARLINK-1163 3.9 18:03:24 10° NW 18:07:30 63° SW 18:10:43 16° SSE
Cosmos 1703 Rocket 3.9 18:04:16 10° SSE 18:08:22 45° E 18:12:30 10° NNE
STARLINK-1245 3.5 18:07:36 10° SW 18:11:42 69° SE 18:15:49 10° NE
STARLINK-1172 4.0 18:08:25 10° NW 18:12:30 56° SW 18:15:31 17° SSE
DMSP B5D2-2 4.2 18:08:23 10° N 18:13:41 79° WNW 18:18:56 10° SSW
Cosmos 2251 Rocket 3.7 18:11:02 10° NNW 18:16:15 72° WSW 18:21:24 10° S
STARLINK-1233 3.5 18:12:32 10° SW 18:16:40 77° SE 18:20:47 10° NE
STARLINK-1145 4.2 18:13:26 10° WNW 18:17:27 50° SW 18:20:17 18° SSE
Cosmos 1743 2.9 18:17:39 10° N 18:21:23 51° E 18:23:35 22° SSE
STARLINK-1204 3.5 18:17:30 10° SW 18:21:38 85° SE 18:25:47 10° NE
Tsikada Rocket 4.0 18:15:54 10° S 18:22:02 65° E 18:28:08 10° NNE
STARLINK-1161 4.3 18:18:25 10° WNW 18:22:22 45° SW 18:25:02 19° SSE
BREEZE-M DEB (TANK) 3.1 18:21:05 10° NW 18:23:19 41° NE 18:24:21 25° E
MetOp-A 4.3 18:18:22 10° S 18:23:41 73° WSW 18:29:03 10° NNW
Cosmos 1544 4.4 18:21:35 10° NNE 18:24:33 23° ENE 18:25:25 21° E
Cosmos 1908 Rocket 3.5 18:21:03 10° N 18:25:29 70° E 18:28:42 18° SSE
STARLINK-1238 3.6 18:22:26 10° SW 18:26:35 87° NW 18:30:44 10° NE
DNEPR-1 R/B 4.1 18:20:42 10° NNW 18:26:45 79° WSW 18:30:16 20° SSE
SAR-Lupe-2 4.4 18:23:53 10° NE 18:27:05 30° E 18:27:53 27° SE
Spot 2 Rocket 4.3 18:24:56 20° ESE 18:27:37 34° ENE 18:32:07 10° N
STARLINK-1162 4.5 18:25:43 10° NW 18:29:39 41° NE 18:31:58 21° E
Resurs 1-3 3.8 18:26:09 13° S 18:30:02 72° WSW 18:34:26 10° NNW
STARLINK-1201 3.7 18:27:27 10° SW 18:31:35 78° NW 18:35:44 10° NE
CZ-2C R/B 3.4 18:28:43 10° N 18:34:11 56° WNW 18:39:39 10° SSW
Cosmos 1975 3.5 18:31:28 10° N 18:35:17 38° E 18:36:35 29° ESE
Cosmos 2056 Rocket 3.4 18:30:21 10° S 18:35:24 63° ESE 18:40:27 10° NNE
STARLINK-1206 3.9 18:32:26 10° SW 18:36:34 70° NW 18:40:42 10° NE
SEDSat Delta rocket 4.2 18:30:25 10° WSW 18:37:00 54° S 18:40:56 23° ESE
Cosmos 2242 Rocket 4.5 18:34:02 10° SSW 18:38:18 49° W 18:42:35 10° N
H-2A R/B 3.3 18:36:15 10° SW 18:38:52 22° S 18:40:02 20° SSE
STARLINK-1159 4.2 18:35:38 10° NW 18:39:40 49° NE 18:41:33 27° E
Cosmos 389 Rocket 3.3 18:37:22 10° SSW 18:40:41 48° W 18:44:04 10° N
Okean 1 3.6 18:37:07 10° SSW 18:41:07 66° W 18:45:09 10° N
STARLINK-1205 4.1 18:37:26 10° WSW 18:41:32 64° NW 18:45:39 10° NE
Meteor 1-19 Rocket 4.1 18:36:26 10° S 18:41:50 75° E 18:47:32 10° NNE
ATLAS 3B CENTAUR R/B 4.0 18:34:49 10° SW 18:43:51 24° S 18:45:38 22° SSE
STARLINK-1171 4.0 18:40:36 10° NW 18:44:40 54° NE 18:46:21 31° ESE
Iridium 51 4.3 18:42:39 26° SSE 18:44:55 68° E 18:48:50 10° N
STARLINK-1218 4.3 18:42:27 10° WSW 18:46:31 57° NW 18:50:36 10° NE
Cosmos 2278 Rocket 2.4 18:42:24 16° S 18:46:46 50° ESE 18:52:14 10° NNE
STARLINK-1155 3.9 18:45:34 10° NW 18:49:40 60° NE 18:51:08 36° ESE
NOSS 2-3 (E) 4.0 18:45:53 10° SW 18:49:59 62° NW 18:54:40 10° NNE
Meteor 1-18 Rocket 4.4 18:45:46 10° SSW 18:51:17 74° W 18:56:55 10° N
Cosmos 44 Rocket 3.4 18:46:26 10° NNW 18:51:19 73° WSW 18:53:44 30° SSE
STARLINK-1254 4.5 18:47:29 10° WSW 18:51:31 52° NW 18:55:34 10° NE
STARLINK-1166 3.7 18:50:31 10° NW 18:54:38 67° NE 18:55:55 41° ESE
STARLINK-1165 3.6 18:55:30 10° NW 18:59:38 74° NE 19:00:42 47° ESE
Terra 3.4 18:59:38 20° E 19:00:29 21° ENE 19:03:58 10° NNE
Lacrosse 5 4.2 18:59:01 10° N 19:01:49 15° NNE 19:04:37 10° ENE
Cosmos 1356 3.5 18:59:43 10° NNW 19:03:09 72° W 19:03:47 54° SSW
STARLINK-1169 3.5 19:00:27 10° NW 19:04:36 82° NE 19:05:29 54° ESE
Cosmos 1452 Rocket 3.9 19:05:40 38° ESE 19:06:24 40° ESE 19:11:19 10° NNE
IGS 5A 3.4 19:07:44 53° SE 19:08:34 71° ENE 19:12:43 10° N
STARLINK-1178 3.5 19:05:25 10° NW 19:09:34 90° NNE 19:10:15 61° SE
Okean 3 3.3 19:11:27 51° S 19:12:30 80° E 19:16:49 10° N
Cosmos 1420 Rocket 3.9 19:10:51 33° S 19:13:10 71° ESE 19:18:21 10° NNE
USA 245 3.1 19:13:17 63° S 19:13:51 84° WSW 19:17:12 10° NNW
STARLINK-1120 3.4 19:10:25 10° NW 19:14:34 82° SW 19:15:03 67° SSE
Cosmos 407 Rocket 3.6 19:10:15 10° NNW 19:15:36 75° WSW 19:17:37 39° S
Meteor 1-13 Rocket 4.2 19:14:30 42° SSE 19:16:08 58° E 19:21:40 10° NNE
Cosmos 724 4.3 19:10:20 10° NNW 19:16:15 77° ENE 19:18:21 42° SE
Cosmos 1300 Rocket 4.0 19:12:52 10° N 19:17:09 45° E 19:17:22 45° E
Cosmos 2221 Rocket 3.5 19:17:13 49° S 19:18:24 87° E 19:22:56 10° N
STARLINK-1131 3.5 19:15:23 10° NW 19:19:31 73° SW 19:19:49 69° S
Meteor 2-4 Rocket 3.6 19:16:59 27° SSW 19:19:59 81° W 19:25:22 10° N
Cosmos 371 Rocket 3.3 19:21:27 54° ESE 19:21:46 56° ESE 19:26:31 10° NNE
COSMOS 2406 3.2 19:16:28 10° NNW 19:22:16 73° ENE 19:23:55 47° SE
SPOT 1/Viking Rocket 3.4 19:21:53 48° SSE 19:23:22 84° ENE 19:28:33 10° NNW
Resurs 01 Rocket 3.4 19:21:43 16° SW 19:24:21 26° W 19:28:05 10° NW
STARLINK-1190 3.6 19:20:20 10° NW 19:24:27 66° SW 19:24:34 65° SSW
Cosmos 1674 Rocket 4.2 19:27:45 39° ENE 19:27:45 39° ENE 19:31:14 10° NNE
STARLINK-1129 3.8 19:25:24 10° NW 19:29:24 59° SW 19:29:24 59° SW
Nadezhda 4 Rocket 4.4 19:29:05 39° ESE 19:29:50 40° E 19:35:30 10° NNE
Hubble Space Telescope 3.1 19:29:25 10° WSW 19:30:11 14° SW 19:30:11 14° SW
SPOT 5 3.0 19:33:14 57° ESE 19:33:59 65° ENE 19:39:10 10° N
Meteor 1-4 Rocket 4.5 19:32:55 20° WSW 19:34:16 25° WNW 19:37:12 10° NNW
STARLINK-1134 4.0 19:30:25 10° WNW 19:34:12 51° WSW 19:34:12 51° WSW
Sich 1 Rocket 4.2 19:30:59 10° NNW 19:35:27 53° W 19:36:32 43° SW
Cosmos 1190 Rocket 4.4 19:32:20 10° NNW 19:37:25 56° WSW 19:38:45 43° SSW
STARLINK-1135 4.3 19:35:23 10° WNW 19:38:56 45° WSW 19:38:56 45° WSW
H-2A ROCKET BODY 4.2 19:37:22 34° SSE 19:39:31 37° SE 20:09:20 10° E
Cosmos 2279 Rocket 3.9 19:36:01 10° N 19:42:17 88° E 19:43:59 51° S
Cosmos 2297 4.4 19:43:34 38° E 19:43:34 38° E 19:48:02 10° NE
Aureole 1 Rocket 4.1 19:40:40 10° NNW 19:44:55 47° WSW 19:46:04 40° SW
BREEZE M DEB (TANK) 4.5 19:43:36 10° WSW 19:49:33 35° NW 19:51:51 12° NNE
Cosmos 1140 Rocket 4.1 19:44:40 10° NNW 19:49:38 47° WSW 19:50:40 41° SW
STARLINK-1093 4.5 19:47:40 10° NW 19:51:26 43° NNE 19:51:26 43° NNE
Okean 2 Rocket 3.4 19:48:22 10° NNW 19:52:43 57° W 19:52:51 56° WSW
STARLINK-1074 4.4 19:52:37 10° NW 19:56:13 46° NNE 19:56:13 46° NNE
Cosmos 1850 Rocket 4.5 19:52:56 10° N 19:58:06 48° ENE 19:58:13 48° ENE
BREEZE-M DEB (TANK) 4.4 20:01:34 37° ENE 20:01:34 37° ENE 20:07:15 10° NE
ERBS 4.4 20:00:02 26° NW 20:00:02 26° NW 20:02:51 10° NNE
ERS-1 Rocket 3.2 20:00:29 54° SW 20:00:58 57° W 20:05:56 10° NNW
Cosmos 2082 Rocket 2.3 19:56:24 10° NNW 20:02:03 59° ENE 20:02:27 57° E
Cosmos 1954 Rocket 4.3 19:59:31 10° NNW 20:04:39 55° WSW 20:05:03 54° WSW
Cosmos 2151 Rocket 4.0 20:01:16 10° NNW 20:05:30 60° WNW 20:05:30 60° WNW
Cosmos 1092 Rocket 4.2 20:07:42 51° E 20:07:42 51° E 20:13:33 10° NNE
SeaSat 1 2.4 20:04:05 10° NNE 20:08:33 72° NE 20:08:33 72° NE
Okean 1 Rocket 3.8 20:06:12 10° N 20:09:39 48° NNE 20:09:39 48° NNE
Cosmos 304 Rocket 4.2 20:11:44 56° NNE 20:11:44 56° NNE 20:15:33 10° NNE
Cosmos 1833 Rocket 2.6 20:05:17 10° NNW 20:10:53 70° WSW 20:11:09 69° SW
Cosmos 2369 Rocket 4.1 20:15:28 17° ENE 20:15:28 17° ENE 20:17:18 10° NE
Meteor 1-15 Rocket 4.2 20:07:18 10° N 20:13:16 80° E 20:13:34 77° ESE
Cosmos 332 Rocket 4.2 20:14:06 56° W 20:14:28 58° WNW 20:19:19 10° N
Cosmos 1066 Rocket 4.1 20:16:25 76° WSW 20:16:38 78° W 20:22:02 10° N
EXPRESS MD2 4.5 20:19:41 43° WNW 20:20:31 50° NNW 20:27:05 10° NE
SL-4 R/B 4.4 20:20:59 10° NNW 20:21:42 15° NNW 20:21:42 15° NNW
Cosmos 1943 Rocket 3.4 20:26:06 29° ENE 20:26:06 29° ENE 20:29:18 10° NE
Cosmos 1331 Rocket 4.4 20:26:58 56° NE 20:26:58 56° NE 20:31:04 10° NNE
ISS -0.8 20:26:59 10° NNW 20:28:26 16° N 20:28:26 16° N
Cosmos 2195 Rocket 4.5 20:30:15 68° E 20:30:15 68° E 20:36:29 10° NNE
Cosmos 2278 Rocket 4.4 20:26:47 10° WSW 20:31:06 22° WNW 20:35:27 10° N
Terra 3.0 20:38:31 36° W 20:38:31 36° W 20:42:21 10° NNW
Lacrosse 5 2.5 20:40:40 10° NW 20:44:50 53° N 20:44:50 53° N
Thor Agena Rocket 3.8 20:42:45 10° N 20:47:30 67° NNW 20:47:30 67° NNW
USA 215 3.6 20:58:28 49° E 20:59:52 59° NE 21:06:17 10° NW
Cosmos 1553 Rocket 4.5 20:55:07 10° N 21:00:53 48° ENE 21:00:53 48° ENE
Cosmos 2026 Rocket 3.9 21:01:22 79° WNW 21:01:22 79° WNW 21:07:32 10° N
Aureole 3 Rocket 4.3 21:01:47 10° N 21:07:23 63° ENE 21:07:23 63° ENE
Cosmos 2266 Rocket 4.5 21:31:36 49° ENE 21:31:36 49° ENE 21:36:38 10° NNE
CENTAUR R/B 4.2 21:28:07 10° NNW 21:35:41 40° NE 21:40:34 23° ESE
BREEZE-M DEB (TANK) 4.2 21:30:31 10° NW 21:35:38 41° WNW 21:35:38 41° WNW
ATLAS CENTAUR R/B 4.3 21:44:37 10° ENE 21:44:37 10° ENE 21:44:42 10° ENE
Cosmos 2082 Rocket 4.3 21:42:01 10° WNW 21:44:18 16° W 21:44:18 16° W
ATLAS 2AS CENTAUR R/B 2.9 21:48:30 74° ESE 21:48:34 74° ESE 21:56:34 10° NE
Cosmos 2369 Rocket 3.0 21:57:13 46° NW 21:57:13 46° NW 22:02:14 10° N
Cosmos 968 Rocket 4.4 21:54:22 10° NNW 21:58:02 46° N 21:58:02 46° N
NOSS 3-2 (A) 4.0 21:53:56 10° NNW 22:01:46 84° ENE 22:02:52 71° SE
Cosmos 2315 Rocket 4.3 22:01:37 10° N 22:07:22 57° ENE 22:07:22 57° ENE
Cosmos 1943 Rocket 3.7 22:07:36 27° WNW 22:07:59 27° WNW 22:12:41 10° N
USA 238 DEB 3.7 22:01:33 10° NNW 22:08:53 89° WSW 22:08:58 88° S
USA 238 3.7 22:01:39 10° NNW 22:08:59 89° WSW 22:09:06 88° SSE
Cosmos 2098 Rocket 4.1 22:13:59 75° ENE 22:13:59 75° ENE 22:20:52 10° N
Resurs 1-4 Rocket 4.3 22:15:39 10° ENE 22:18:01 14° E 22:18:01 14° E
Helios 1B rocket 4.5 22:14:38 10° NNE 22:16:32 27° NNE 22:16:32 27° NNE
COSMOS 2455 3.0 22:28:33 68° NE 22:28:33 68° NE 22:33:44 10° NNE
Meteor 2-15 Rocket 4.5 22:31:16 10° N 22:36:51 73° NNW 22:36:51 73° NNW
VEP-3 4.5 22:39:21 42° SSE 22:39:21 42° SSE 23:03:40 10° ESE
Cosmos 1626 4.4 22:59:58 23° N 22:59:58 23° N 23:01:29 10° N
Meteor 2-21 4.4 23:01:27 71° WNW 23:01:27 71° WNW 23:07:23 10° N
NOSS 3-2 (C) 4.1 22:58:51 10° NW 23:06:37 62° WSW 23:07:06 61° SW
SL-16 R/B 3.2 23:10:56 35° ESE 23:13:01 48° ENE 23:18:53 10° N
SL-4 R/B 3.6 23:13:39 36° NNW 23:13:43 36° NNW 23:18:08 10° NE
SL-19 R/B 4.4 23:11:49 10° N 23:16:57 62° WNW 23:16:57 62° WNW
Timation 2 Rocket 4.3 23:11:35 10° NNW 23:17:49 60° ENE 23:19:35 43° ESE
ATLAS CENTAUR R/B 3.1 23:20:47 28° NNW 23:20:47 28° NNW 23:23:43 10° N
Cosmos 1777 Rocket 4.1 23:17:06 10° NNW 23:21:42 69° NNW 23:21:42 69° NNW
ATLAS 3B R/B 2.8 23:15:41 10° NNW 23:22:33 76° ENE 23:25:35 37° SE
Cosmos 1602 Rocket 4.4 23:24:49 46° NE 23:24:49 46° NE 23:28:09 10° NNE
CENTAUR R/B 3.3 23:18:39 10° NW 23:26:46 55° WSW 23:27:41 53° SW
Cosmos 1745 Rocket 3.8 23:28:05 78° SSW 23:28:33 88° W 23:34:44 10° N
Cosmos 1455 4.3 23:31:23 10° NNE 23:34:15 20° ENE 23:34:30 20° E
BREEZE-M DEB (TANK) 4.1 23:32:11 10° NW 23:36:11 74° NE 23:47:09 10° ESE
Cosmos 1867 4.2 23:32:17 10° NW 23:36:08 42° WNW 23:36:08 42° WNW
GP-B 4.5 23:34:15 10° NNE 23:38:13 31° E 23:38:44 30° E
Meteor 1-24 Rocket 4.5 23:39:53 35° WNW 23:39:53 35° WNW 23:44:24 10° N
ATLAS 2AS CENTAUR R/B 4.4 23:35:54 18° W 23:40:18 29° NW 23:47:00 10° NNE
RESURS DK-1 3.9 23:43:24 30° NW 23:43:24 30° NW 23:46:17 10° N
Cosmos 1697 Rocket 3.9 23:41:27 28° SE 23:42:44 31° ESE 23:47:38 10° NE
Cosmos 1763 Rocket 4.2 23:43:43 39° ESE 23:44:18 41° ESE 23:49:04 10° NNE
Cosmos 2227 Rocket 3.8 23:39:35 10° N 23:44:37 31° ENE 23:49:37 10° ESE
CZ-2D R/B 1.9 23:43:27 10° N 23:48:42 77° WNW 23:48:55 76° WSW
Cosmos 1356 Rocket 4.1 23:46:36 10° NNW 23:49:41 48° NNW 23:49:41 48° NNW
ADEOS II 3.0 23:46:51 10° NNE 23:51:48 41° E 23:53:11 34° SE
CZ-4C R/B 4.3 23:55:04 41° NW 23:55:04 41° NW 23:58:04 10° NNW
